Location: Kellogg
(38.0159°N, 90.0546°W)
Time: 09:07:33
(UTC+00:00)

Altair - Pass Details

Date: 19 September 2024
Orbit: 1501 x 1682 km, 47.2° (Epoch: 07 October)

Event Time Altitude Azimuth Distance (km) Brightness Sun altitude
Rises 12:04:02 0° 296° (WNW) 4,921 9.6 2.7°
Reaches altitude 10° 12:07:15 10° 300° (WNW) 3,941 9.1 3.4°
Maximum altitude 12:17:23 66° 22° (NNE) 1,811 8.2 5.4°
Drops below altitude 10° 12:27:24 10° 104° (ESE) 3,903 12.1 7.3°
Sets 12:30:34 0° 107° (ESE) 4,871 12.1 7.9°
